TimeCST,TemperatureF,Dew PointF,Humidity,Sea Level PressureIn,VisibilityMPH,Wind Direction,Wind SpeedMPH,Gust SpeedMPH,PrecipitationIn,Events,Conditions,WindDirDegrees,DateUTC
12:58 AM,56.1,43.3,62,29.93,10.0,South,10.4,-,N/A,,Clear,190,2013-03-04 06:58:00
1:58 AM,54.5,44.1,68,29.93,10.0,SSW,6.9,-,N/A,,Clear,210,2013-03-04 07:58:00
2:58 AM,53.6,45.3,74,29.90,10.0,SSW,6.9,-,N/A,,Clear,210,2013-03-04 08:58:00
3:58 AM,52.7,46.2,79,29.89,10.0,SSW,4.6,-,N/A,,Clear,210,2013-03-04 09:58:00
4:58 AM,51.4,47.3,86,29.88,10.0,SSW,4.6,-,N/A,,Clear,210,2013-03-04 10:58:00
5:58 AM,50.5,48.4,92,29.89,10.0,SW,3.5,-,N/A,,Clear,220,2013-03-04 11:58:00
6:58 AM,51.3,50.4,97,29.89,10.0,SSW,4.6,-,N/A,,Clear,210,2013-03-04 12:58:00
7:58 AM,53.8,52.3,95,29.90,10.0,SSW,8.1,-,N/A,,Clear,210,2013-03-04 13:58:00
8:58 AM,59.2,53.8,82,29.91,10.0,SW,10.4,-,N/A,,Clear,220,2013-03-04 14:58:00
9:58 AM,64.9,53.1,65,29.89,10.0,SW,11.5,-,N/A,,Clear,220,2013-03-04 15:58:00
10:58 AM,69.4,51.1,52,29.87,10.0,SSW,12.7,-,N/A,,Clear,210,2013-03-04 16:58:00
11:58 AM,74.1,48.9,41,29.84,10.0,SW,12.7,-,N/A,,Clear,220,2013-03-04 17:58:00
12:58 PM,78.3,48.9,36,29.81,10.0,SSW,10.4,18.4,N/A,,Clear,210,2013-03-04 18:58:00
1:58 PM,82.0,46.6,29,29.77,10.0,SW,10.4,-,N/A,,Clear,220,2013-03-04 19:58:00
2:58 PM,84.7,45.3,25,29.75,10.0,SSW,11.5,18.4,N/A,,Clear,200,2013-03-04 20:58:00
3:58 PM,86.4,42.4,21,29.73,10.0,SSW,10.4,-,N/A,,Clear,200,2013-03-04 21:58:00
4:58 PM,84.9,41.9,22,29.72,10.0,SW,10.4,-,N/A,,Clear,220,2013-03-04 22:58:00
5:58 PM,84.2,39.7,21,29.72,10.0,SSW,6.9,-,N/A,,Clear,200,2013-03-04 23:58:00
6:58 PM,76.5,39.7,27,29.72,10.0,South,6.9,-,N/A,,Clear,180,2013-03-05 00:58:00
7:58 PM,74.8,38.7,27,29.72,10.0,South,6.9,-,N/A,,Clear,180,2013-03-05 01:58:00
8:58 PM,69.3,44.6,41,29.75,10.0,SSE,8.1,-,N/A,,Clear,160,2013-03-05 02:58:00
9:58 PM,63.3,46.2,54,29.77,10.0,ESE,4.6,-,N/A,,Clear,110,2013-03-05 03:58:00
10:58 PM,60.6,54.3,80,29.79,10.0,ESE,2.3,-,N/A,,Clear,110,2013-03-05 04:58:00
11:28 PM,60.8,55.4,82,29.80,9.0,SSE,4.6,-,N/A,,Clear,150,2013-03-05 05:28:00
11:38 PM,60.8,57.2,88,29.80,10.0,SSE,4.6,-,N/A,,Clear,150,2013-03-05 05:38:00
11:53 PM,60.8,57.2,88,29.79,9.0,SSE,4.6,-,N/A,,Clear,160,2013-03-05 05:53:00
11:58 PM,61.3,57.0,86,29.78,9.0,South,4.6,-,N/A,,Clear,170,2013-03-05 05:58:00